M I D A S
Marine Information and Data Acquisition System
Tripno 673 of the Zeeleeuw from 2004-03-22 09:02:38 to 2004-03-22 14:32:03
Back to CruiseResearch ActivitiesStationsMapUnderway DataData graphs

EquipmentUnitsComments
TimeDGPSUTC
LatitudeDGPSDM.mWGS84
LongitudeDGPSDM.mWGS84
SpeedMeteo Stationm/sRelative wind speed
DirectionMeteo StationdegRelative wind direction
TemperatureMeteo Stationdeg CelciusAir temperature
PressureMeteo StationPaAtmospheric pressure
HumidityMeteo Station%Relative humidity
Missing or incorrect values are displayed as -999
Metereological data collected by the RV Zeeleeuw from 2004-03-22 09:02:38 to 2004-03-22 14:32:03
Time Latitude Longitude Speed Direction Temperature Pressure Humidity
2004-03-22 09:03 51°13.592 2°56.102 7 208 7.7 100900 73
2004-03-22 09:04 51°13.605 2°56.042 7.7 202 7.7 100900 74
2004-03-22 09:05 51°13.638 2°55.952 9.5 198 7.7 100900 74
2004-03-22 09:06 51°13.672 2°55.848 6.7 199 7.8 100900 73
2004-03-22 09:07 51°13.687 2°55.768 3.1 206 7.8 100900 72
2004-03-22 09:08 51°13.691 2°55.767 4.4 261 7.8 100900 72
2004-03-22 09:09 51°13.69 2°55.748 5.8 324 7.7 100900 73
2004-03-22 09:10 51°13.754 2°55.694 6.9 3 7.8 100900 73
2004-03-22 09:11 51°13.853 2°55.618 6.6 2 7.7 100900 72
2004-03-22 09:12 51°13.968 2°55.535 8.4 338 7.6 100900 73
2004-03-22 09:13 51°14.083 2°55.452 12 340 7.6 100900 73
2004-03-22 09:14 51°14.213 2°55.331 13.5 354 7.6 100900 74
2004-03-22 09:15 51°14.332 2°55.131 16.3 356 7.5 100900 74
2004-03-22 09:16 51°14.463 2°54.916 15.1 348 7.4 100900 74
2004-03-22 09:17 51°14.609 2°54.72 14.8 336 7.4 100860 76
2004-03-22 09:18 51°14.724 2°54.559 12.4 357 7.4 100890 76
2004-03-22 09:19 51°14.731 2°54.468 11.9 12 7.3 100900 75
2004-03-22 09:20 51°14.717 2°54.423 10.8 30 7.2 100890 75
2004-03-22 09:21 51°14.698 2°54.405 10.4 47 7.1 100900 75
2004-03-22 09:22 51°14.681 2°54.403 9 85 7.1 100890 76
2004-03-22 09:23 51°14.666 2°54.399 8.8 103 7.1 100900 77
2004-03-22 09:24 51°14.65 2°54.395 8.8 108 7.1 100900 77
2004-03-22 09:25 51°14.613 2°54.395 6.8 135 7.1 100900 78
2004-03-22 09:26 51°14.592 2°54.477 5.8 257 7.1 100930 78
2004-03-22 09:27 51°14.654 2°54.474 10.7 330 7.1 100910 78
2004-03-22 09:28 51°14.789 2°54.374 14 326 7.2 100860 77
2004-03-22 09:29 51°14.969 2°54.237 14.2 337 7.2 100850 76
2004-03-22 09:30 51°15.152 2°54.06 15.3 337 7.2 100860 76
2004-03-22 09:31 51°15.342 2°53.896 16.2 336 7.2 100860 76
2004-03-22 09:32 51°15.534 2°53.732 16.3 340 7.2 100860 76
2004-03-22 09:33 51°15.724 2°53.564 14.7 342 7.2 100850 77
2004-03-22 09:34 51°15.912 2°53.395 13.8 336 7.2 100860 76
2004-03-22 09:35 51°16.101 2°53.237 15.8 333 7.2 100850 76
2004-03-22 09:36 51°16.293 2°53.091 15.7 342 7.1 100850 75
2004-03-22 09:37 51°16.486 2°52.948 16.8 338 7.2 100850 76
2004-03-22 09:38 51°16.676 2°52.809 15.6 336 7.2 100860 76
2004-03-22 09:39 51°16.864 2°52.666 14.7 335 7.2 100860 76
2004-03-22 09:40 51°17.054 2°52.523 12.3 330 7.1 100860 76
2004-03-22 09:41 51°17.242 2°52.379 14.9 338 7.2 100860 77
2004-03-22 09:42 51°17.42 2°52.204 15.9 337 7.2 100860 76
2004-03-22 09:43 51°17.588 2°52.001 17.2 344 7.1 100850 76
2004-03-22 09:44 51°17.754 2°51.792 17.1 337 7.1 100870 76
2004-03-22 09:45 51°17.915 2°51.573 14.6 349 7.1 100870 76
2004-03-22 09:46 51°18.061 2°51.318 15.7 350 7.1 100910 77
2004-03-22 09:47 51°18.204 2°51.066 15.4 344 7.1 100860 77
2004-03-22 09:48 51°18.351 2°50.795 16.2 342 7.1 100870 78
2004-03-22 09:49 51°18.493 2°50.534 15.4 345 7 100870 78
2004-03-22 09:50 51°18.635 2°50.273 16.8 347 7 100860 77
2004-03-22 09:51 51°18.771 2°49.991 15.4 351 7 100870 78
2004-03-22 09:52 51°18.909 2°49.714 15.5 350 7 100870 78
2004-03-22 09:53 51°19.05 2°49.436 15.4 349 7 100870 78
2004-03-22 09:54 51°19.181 2°49.143 16.7 352 6.9 100870 78
2004-03-22 09:55 51°19.306 2°48.852 15.7 348 6.9 100860 78
2004-03-22 09:56 51°19.431 2°48.556 16.4 350 6.9 100850 78
2004-03-22 09:57 51°19.541 2°48.253 16.2 352 6.9 100870 77
2004-03-22 09:58 51°19.621 2°47.904 15.4 8 6.9 100870 78
2004-03-22 09:59 51°19.662 2°47.525 16.8 6 6.9 100870 78
2004-03-22 10:00 51°19.713 2°47.155 15.4 2 6.9 100880 78
2004-03-22 10:01 51°19.767 2°46.788 14.7 1 6.9 100870 78
2004-03-22 10:02 51°19.816 2°46.422 15.6 2 6.9 100880 78
2004-03-22 10:03 51°19.864 2°46.056 15.8 6 6.9 100880 78
2004-03-22 10:04 51°19.878 2°45.68 16.5 10 6.9 100880 79
2004-03-22 10:05 51°19.887 2°45.297 15.7 10 6.9 100880 78
2004-03-22 10:06 51°19.895 2°44.921 17.4 12 6.9 100880 78
2004-03-22 10:07 51°19.876 2°44.539 16.5 16 6.9 100880 78
2004-03-22 10:08 51°19.855 2°44.161 16.5 20 6.9 100880 78
2004-03-22 10:09 51°19.797 2°43.792 16 27 6.8 100870 78
2004-03-22 10:10 51°19.683 2°43.446 13.9 31 6.8 100880 78
2004-03-22 10:11 51°19.529 2°43.134 15.4 38 6.8 100860 78
2004-03-22 10:12 51°19.37 2°42.831 14.4 38 6.7 100870 78
2004-03-22 10:13 51°19.215 2°42.526 12.9 39 6.8 100870 78
2004-03-22 10:14 51°19.061 2°42.219 14.3 37 6.8 100880 78
2004-03-22 10:15 51°18.904 2°41.912 12.6 36 6.8 100880 79
2004-03-22 10:16 51°18.751 2°41.604 15.3 33 6.8 100880 79
2004-03-22 10:17 51°18.599 2°41.294 14.9 39 6.8 100880 79
2004-03-22 10:18 51°18.447 2°40.98 15.6 34 6.8 100880 79
2004-03-22 10:19 51°18.296 2°40.665 15.2 35 6.8 100880 79
2004-03-22 10:20 51°18.146 2°40.35 14.1 36 6.7 100890 78
2004-03-22 10:21 51°18 2°40.041 13.8 33 6.8 100890 79
2004-03-22 10:22 51°17.879 2°39.816 13.1 56 6.7 100910 78
2004-03-22 10:23 51°17.783 2°39.645 12 36 6.7 100920 78
2004-03-22 10:24 51°17.759 2°39.567 8.8 1 6.7 100940 78
2004-03-22 10:25 51°17.739 2°39.561 4.4 11 6.8 100930 78
2004-03-22 10:26 51°17.72 2°39.565 8.2 18 6.8 100940 78
2004-03-22 10:27 51°17.7 2°39.574 8.3 50 6.9 100940 77
2004-03-22 10:28 51°17.685 2°39.584 8.5 59 6.8 100930 78
2004-03-22 10:29 51°17.672 2°39.588 7.6 71 6.8 100930 78
2004-03-22 10:30 51°17.656 2°39.586 7.4 99 6.8 100940 78
2004-03-22 10:31 51°17.64 2°39.582 7.4 115 6.9 100930 79
2004-03-22 10:32 51°17.621 2°39.578 7.5 113 6.8 100940 78
2004-03-22 10:33 51°17.6 2°39.573 8.2 108 6.8 100940 78
2004-03-22 10:34 51°17.578 2°39.565 8.7 107 6.9 100950 78
2004-03-22 10:35 51°17.555 2°39.556 8 102 6.8 100940 78
2004-03-22 10:36 51°17.532 2°39.547 9.7 91 6.9 100940 78
2004-03-22 10:37 51°17.508 2°39.539 8.3 94 6.9 100940 78
2004-03-22 10:38 51°17.485 2°39.533 8.5 98 6.8 100940 77
2004-03-22 10:39 51°17.443 2°39.512 9 80 6.9 100950 78
2004-03-22 10:40 51°17.385 2°39.469 9.2 82 6.8 100950 78
2004-03-22 10:41 51°17.332 2°39.429 8.1 77 6.9 100940 78
2004-03-22 10:42 51°17.286 2°39.393 7.6 78 6.8 100950 78
2004-03-22 10:43 51°17.244 2°39.363 8.3 79 6.9 100950 79
2004-03-22 10:44 51°17.204 2°39.336 8.2 80 6.8 100950 78
2004-03-22 10:45 51°17.163 2°39.31 6.7 77 6.8 100950 78
2004-03-22 10:46 51°17.121 2°39.287 6.5 74 6.9 100950 79
2004-03-22 10:47 51°17.081 2°39.267 6.9 75 6.9 100960 79
2004-03-22 10:48 51°17.04 2°39.248 8.4 76 6.8 100950 79
2004-03-22 10:49 51°16.998 2°39.232 7.5 75 6.8 100950 78
2004-03-22 10:50 51°16.957 2°39.216 8.4 83 6.8 100960 79
2004-03-22 10:51 51°16.914 2°39.203 10 85 6.8 100960 79
2004-03-22 10:52 51°16.871 2°39.187 8.2 85 6.9 100970 79
2004-03-22 10:53 51°16.826 2°39.167 8.6 81 6.9 100960 79
2004-03-22 10:54 51°16.779 2°39.143 8 68 6.9 100960 79
2004-03-22 10:55 51°16.733 2°39.118 9 71 6.9 100950 79
2004-03-22 10:56 51°16.687 2°39.099 8.7 62 6.8 100970 79
2004-03-22 10:57 51°16.641 2°39.074 8.5 67 6.8 100950 79
2004-03-22 10:58 51°16.596 2°39.053 9.4 67 6.8 100950 79
2004-03-22 10:59 51°16.552 2°39.03 9.1 67 6.8 100960 79
2004-03-22 11:00 51°16.509 2°39.002 8.9 58 6.8 100970 79
2004-03-22 11:01 51°16.468 2°38.975 9 55 6.8 100960 79
2004-03-22 11:02 51°16.43 2°38.951 8.4 56 6.8 100960 79
2004-03-22 11:03 51°16.392 2°38.924 10.9 49 6.8 100960 78
2004-03-22 11:04 51°16.351 2°38.889 9.5 51 6.8 100970 79
2004-03-22 11:05 51°16.311 2°38.85 9.2 52 6.8 100960 78
2004-03-22 11:06 51°16.273 2°38.809 8.3 47 6.8 100970 78
2004-03-22 11:07 51°16.231 2°38.773 9.1 61 6.8 100960 79
2004-03-22 11:08 51°16.189 2°38.736 9.3 56 6.8 100970 78
2004-03-22 11:09 51°16.148 2°38.699 8.9 44 6.9 100980 79
2004-03-22 11:10 51°16.105 2°38.663 9 60 6.9 100970 79
2004-03-22 11:11 51°16.059 2°38.634 7.8 66 6.9 100970 79
2004-03-22 11:12 51°16.011 2°38.609 7.7 58 6.9 100970 79
2004-03-22 11:13 51°15.963 2°38.578 8.7 54 6.9 100980 79
2004-03-22 11:14 51°15.918 2°38.548 9.6 63 6.9 100970 79
2004-03-22 11:15 51°15.875 2°38.518 9.2 54 6.8 100980 79
2004-03-22 11:16 51°15.835 2°38.488 8.3 53 6.9 100980 79
2004-03-22 11:17 51°15.799 2°38.455 9.5 47 6.9 100980 79
2004-03-22 11:18 51°15.766 2°38.425 9.4 45 6.8 100980 79
2004-03-22 11:19 51°15.727 2°38.402 9.3 57 6.8 100970 78
2004-03-22 11:20 51°15.689 2°38.387 6.1 64 6.9 100980 78
2004-03-22 11:21 51°15.662 2°38.393 7.4 76 6.9 100980 78
2004-03-22 11:22 51°15.643 2°38.411 7.3 71 6.9 100980 79
2004-03-22 11:23 51°15.627 2°38.433 8 70 7 100980 79
2004-03-22 11:24 51°15.612 2°38.459 7.2 82 6.9 100990 79
2004-03-22 11:25 51°15.599 2°38.486 6.4 77 7 100980 79
2004-03-22 11:26 51°15.581 2°38.509 8.4 68 6.9 100980 79
2004-03-22 11:27 51°15.552 2°38.5 9 41 6.9 100970 78
2004-03-22 11:28 51°15.539 2°38.454 10.6 3 6.9 100990 78
2004-03-22 11:29 51°15.563 2°38.436 10.1 305 7 100990 78
2004-03-22 11:30 51°15.614 2°38.486 8.7 295 7.1 101000 78
2004-03-22 11:31 51°15.684 2°38.552 7.8 284 7.3 101000 78
2004-03-22 11:32 51°15.745 2°38.609 7.5 286 7.4 101000 78
2004-03-22 11:33 51°15.827 2°38.696 8.9 282 7.4 101000 77
2004-03-22 11:34 51°15.892 2°38.837 5 239 7.4 101010 77
2004-03-22 11:35 51°15.884 2°38.96 7 167 7.3 101010 77
2004-03-22 11:36 51°15.874 2°39.02 8.7 147 7.3 100990 77
2004-03-22 11:37 51°15.891 2°39.039 9.3 135 7.2 100980 77
2004-03-22 11:38 51°15.891 2°39.076 8 132 7.2 100990 78
2004-03-22 11:39 51°15.888 2°39.118 8.5 124 7.2 100990 77
2004-03-22 11:40 51°15.889 2°39.158 8.6 124 7.1 100990 77
2004-03-22 11:41 51°15.886 2°39.198 8 118 7.1 100990 77
2004-03-22 11:42 51°15.879 2°39.239 8.3 112 7.1 101000 77
2004-03-22 11:43 51°15.872 2°39.278 7.4 111 7.1 101000 77
2004-03-22 11:44 51°15.865 2°39.316 8.7 107 7.2 101000 78
2004-03-22 11:45 51°15.857 2°39.353 8.6 98 7.1 101000 77
2004-03-22 11:46 51°15.85 2°39.392 8 97 7.1 101000 77
2004-03-22 11:47 51°15.776 2°39.381 9.3 57 7.1 100990 77
2004-03-22 11:48 51°15.618 2°39.306 12 59 7.1 100980 77
2004-03-22 11:49 51°15.413 2°39.207 12.7 57 7 100960 77
2004-03-22 11:50 51°15.193 2°39.141 11.6 56 7 100970 78
2004-03-22 11:51 51°14.973 2°39.088 12.7 62 7 100980 78
2004-03-22 11:52 51°14.754 2°39.028 11.9 61 7 100970 77
2004-03-22 11:53 51°14.533 2°38.97 10.9 53 7 100980 77
2004-03-22 11:54 51°14.31 2°38.936 10.9 64 7 100980 78
2004-03-22 11:55 51°14.085 2°38.897 10.8 52 7 100980 77
2004-03-22 11:56 51°13.877 2°38.785 13.1 52 7 100980 78
2004-03-22 11:57 51°13.686 2°38.629 12.4 47 7.1 100980 77
2004-03-22 11:58 51°13.491 2°38.478 11.8 47 7 100970 77
2004-03-22 11:59 51°13.298 2°38.327 12.6 50 7.1 100980 77
2004-03-22 12:00 51°13.105 2°38.175 12.8 52 7.2 100980 77
2004-03-22 12:01 51°12.917 2°38.021 11.9 40 7.1 100980 78
2004-03-22 12:02 51°12.736 2°37.857 12.3 37 7.1 100970 77
2004-03-22 12:03 51°12.557 2°37.691 12.9 43 7.1 100980 77
2004-03-22 12:04 51°12.378 2°37.524 11.9 41 7.1 100980 77
2004-03-22 12:05 51°12.198 2°37.359 12.3 38 7.1 100970 77
2004-03-22 12:06 51°12.019 2°37.193 12.9 51 7.1 100990 77
2004-03-22 12:07 51°11.84 2°37.026 11 42 7.1 100980 76
2004-03-22 12:08 51°11.658 2°36.859 12.6 47 7.1 100980 77
2004-03-22 12:09 51°11.478 2°36.693 11.6 38 7.2 100990 77
2004-03-22 12:10 51°11.301 2°36.524 11.9 42 7.1 100980 77
2004-03-22 12:11 51°11.125 2°36.352 12.3 38 7.1 100990 77
2004-03-22 12:12 51°10.957 2°36.164 13.3 43 7.1 100990 77
2004-03-22 12:13 51°10.789 2°35.973 11.6 34 7.1 100990 77
2004-03-22 12:14 51°10.623 2°35.783 11.9 42 7.2 100990 77
2004-03-22 12:15 51°10.456 2°35.592 12.4 36 7.2 100990 77
2004-03-22 12:16 51°10.289 2°35.406 11.9 40 7.2 100990 76
2004-03-22 12:17 51°10.12 2°35.22 10.8 36 7.2 100990 76
2004-03-22 12:18 51°9.953 2°35.031 10.7 39 7.2 101000 76
2004-03-22 12:19 51°9.785 2°34.844 12.1 40 7.2 101000 76
2004-03-22 12:20 51°9.62 2°34.661 12.1 44 7.2 101000 77
2004-03-22 12:21 51°9.454 2°34.488 10.1 34 7.2 100990 76
2004-03-22 12:22 51°9.294 2°34.312 10.4 40 7.3 101000 77
2004-03-22 12:23 51°9.134 2°34.14 11.2 36 7.3 101000 77
2004-03-22 12:24 51°8.973 2°33.963 11.2 44 7.3 100990 77
2004-03-22 12:25 51°8.811 2°33.781 10 32 7.3 101000 76
2004-03-22 12:26 51°8.649 2°33.602 11.1 32 7.3 100990 76
2004-03-22 12:27 51°8.486 2°33.419 10.5 34 7.3 100990 76
2004-03-22 12:28 51°8.334 2°33.25 10.4 37 7.4 100990 76
2004-03-22 12:29 51°8.211 2°33.125 9 47 7.4 101000 75
2004-03-22 12:30 51°8.149 2°33.056 8 38 7.3 101010 76
2004-03-22 12:31 51°8.131 2°33.01 7.1 45 7.4 101010 76
2004-03-22 12:32 51°8.104 2°33 6.1 56 7.4 101010 76
2004-03-22 12:33 51°8.108 2°33.029 4.7 51 7.4 101010 75
2004-03-22 12:34 51°8.116 2°33.065 5.1 43 7.4 101010 74
2004-03-22 12:35 51°8.126 2°33.103 5.4 38 7.4 101010 74
2004-03-22 12:36 51°8.137 2°33.149 5 43 7.4 101020 74
2004-03-22 12:37 51°8.149 2°33.198 4.8 49 7.4 101010 75
2004-03-22 12:38 51°8.16 2°33.247 4.7 70 7.5 101020 76
2004-03-22 12:39 51°8.168 2°33.292 4.5 64 7.5 101010 77
2004-03-22 12:40 51°8.173 2°33.333 4.5 74 7.5 101010 76
2004-03-22 12:41 51°8.175 2°33.369 4.2 61 7.5 101010 77
2004-03-22 12:42 51°8.175 2°33.4 4.7 63 7.5 101010 77
2004-03-22 12:43 51°8.175 2°33.427 4.9 55 7.5 101010 77
2004-03-22 12:44 51°8.176 2°33.444 5.8 30 7.5 101000 77
2004-03-22 12:45 51°8.2 2°33.421 5.3 332 7.5 101000 78
2004-03-22 12:46 51°8.247 2°33.443 3.9 283 7.6 101010 77
2004-03-22 12:47 51°8.299 2°33.504 4.3 265 7.7 101000 76
2004-03-22 12:48 51°8.352 2°33.572 4.4 269 7.8 101000 76
2004-03-22 12:49 51°8.4 2°33.639 4.1 282 7.8 101010 76
2004-03-22 12:50 51°8.448 2°33.706 4 281 7.9 101000 75
2004-03-22 12:51 51°8.499 2°33.784 4.1 266 7.9 101000 75
2004-03-22 12:52 51°8.546 2°33.878 3.3 257 7.9 100990 75
2004-03-22 12:53 51°8.588 2°33.979 2.7 247 7.8 101010 74
2004-03-22 12:54 51°8.627 2°34.084 2.7 241 7.9 101000 75
2004-03-22 12:55 51°8.665 2°34.191 2.5 243 7.9 101000 75
2004-03-22 12:56 51°8.703 2°34.292 2.5 257 7.9 101010 75
2004-03-22 12:57 51°8.74 2°34.391 3 243 7.9 101000 75
2004-03-22 12:58 51°8.777 2°34.493 3 238 7.9 101000 74
2004-03-22 12:59 51°8.81 2°34.599 3.1 221 7.9 101010 74
2004-03-22 13:00 51°8.84 2°34.709 3.5 228 7.9 101000 73
2004-03-22 13:01 51°8.865 2°34.821 2.9 209 7.9 101010 74
2004-03-22 13:02 51°8.882 2°34.934 2.6 218 7.9 101000 74
2004-03-22 13:03 51°8.899 2°35.047 2.4 212 8.1 101010 72
2004-03-22 13:04 51°8.925 2°35.156 3.2 229 8 101000 73
2004-03-22 13:05 51°8.958 2°35.259 3.6 236 8 101010 73
2004-03-22 13:06 51°8.994 2°35.363 2.7 237 8 101010 73
2004-03-22 13:07 51°9.027 2°35.471 2.6 230 8 101010 74
2004-03-22 13:08 51°9.057 2°35.583 2.8 211 8 101010 74
2004-03-22 13:09 51°9.082 2°35.699 2.2 205 7.9 101010 74
2004-03-22 13:10 51°9.107 2°35.816 2.6 212 7.9 101010 74
2004-03-22 13:11 51°9.137 2°35.928 2.6 226 7.9 101020 74
2004-03-22 13:12 51°9.171 2°36.037 2.4 245 7.9 101010 75
2004-03-22 13:13 51°9.208 2°36.14 2.7 240 8 101000 76
2004-03-22 13:14 51°9.245 2°36.24 2.7 241 8 101000 76
2004-03-22 13:15 51°9.278 2°36.34 2.5 230 8 101000 75
2004-03-22 13:16 51°9.309 2°36.442 3.3 232 8 101000 76
2004-03-22 13:17 51°9.34 2°36.543 3.2 226 8 101010 75
2004-03-22 13:18 51°9.369 2°36.647 3.4 220 8 101000 76
2004-03-22 13:19 51°9.397 2°36.75 2.6 213 8 101000 75
2004-03-22 13:20 51°9.421 2°36.852 2.9 214 8 101000 76
2004-03-22 13:21 51°9.444 2°36.954 2.9 203 7.9 101000 76
2004-03-22 13:22 51°9.468 2°37.057 2.3 189 7.8 101000 75
2004-03-22 13:23 51°9.49 2°37.162 2.1 195 7.8 101000 76
2004-03-22 13:24 51°9.51 2°37.269 2.4 193 8 101000 77
2004-03-22 13:25 51°9.529 2°37.375 3 170 8.3 101000 77
2004-03-22 13:26 51°9.543 2°37.488 3.4 157 8.3 101010 74
2004-03-22 13:27 51°9.555 2°37.607 2.9 165 8.2 101000 74
2004-03-22 13:28 51°9.566 2°37.728 2.9 160 8.1 101000 76
2004-03-22 13:29 51°9.577 2°37.849 3.3 151 8 101010 76
2004-03-22 13:30 51°9.583 2°37.983 3.6 138 8 101010 77
2004-03-22 13:31 51°9.582 2°38.092 4.5 129 8 101000 78
2004-03-22 13:32 51°9.577 2°38.183 3.9 121 8 101000 78
2004-03-22 13:33 51°9.571 2°38.261 4 121 8 101000 78
2004-03-22 13:34 51°9.564 2°38.33 4.5 112 7.9 101000 78
2004-03-22 13:35 51°9.555 2°38.401 4.1 111 8 101000 79
2004-03-22 13:36 51°9.565 2°38.577 0.9 8 8 101000 79
2004-03-22 13:37 51°9.631 2°38.755 3.5 247 8 101000 79
2004-03-22 13:38 51°9.69 2°38.848 3.5 251 8 100990 79
2004-03-22 13:39 51°9.737 2°38.918 3.4 249 7.9 100990 79
2004-03-22 13:40 51°9.777 2°38.979 3.1 256 7.8 100990 79
2004-03-22 13:41 51°9.876 2°39.118 2 300 7.9 100990 79
2004-03-22 13:42 51°9.981 2°39.444 2.6 345 7.9 101000 80
2004-03-22 13:43 51°10.072 2°39.834 2.3 9 8 100990 79
2004-03-22 13:44 51°10.167 2°40.223 2.1 359 8 100990 79
2004-03-22 13:45 51°10.26 2°40.611 2.6 347 8 100980 79
2004-03-22 13:46 51°10.353 2°41.001 2.5 351 8.1 100980 79
2004-03-22 13:47 51°10.445 2°41.389 2.5 352 8.1 100990 79
2004-03-22 13:48 51°10.537 2°41.776 2.7 354 8.2 100980 79
2004-03-22 13:49 51°10.625 2°42.163 2.8 351 8.2 100980 78
2004-03-22 13:50 51°10.717 2°42.552 2.8 328 8.2 100980 78
2004-03-22 13:51 51°10.806 2°42.941 2.6 337 8.2 100980 78
2004-03-22 13:52 51°10.895 2°43.327 2.9 340 8.2 100980 78
2004-03-22 13:53 51°10.978 2°43.719 2.5 350 8.2 100970 78
2004-03-22 13:54 51°11.066 2°44.105 3.2 350 8.2 100970 77
2004-03-22 13:55 51°11.156 2°44.489 2.8 343 8.2 100980 78
2004-03-22 13:56 51°11.251 2°44.87 3.2 344 8.2 100980 77
2004-03-22 13:57 51°11.354 2°45.251 3.3 321 8.2 100980 77
2004-03-22 13:58 51°11.465 2°45.625 2.9 346 8.2 100970 77
2004-03-22 13:59 51°11.577 2°45.998 2.9 353 8.2 100970 77
2004-03-22 14:00 51°11.688 2°46.375 2.4 343 8.2 100970 77
2004-03-22 14:01 51°11.799 2°46.751 3.2 324 8.3 100980 76
2004-03-22 14:02 51°11.919 2°47.118 3.3 338 8.3 100980 76
2004-03-22 14:03 51°12.041 2°47.486 2.8 348 8.4 100980 76
2004-03-22 14:04 51°12.167 2°47.852 3.5 335 8.4 100970 76
2004-03-22 14:05 51°12.291 2°48.219 3.2 339 8.4 100980 76
2004-03-22 14:06 51°12.413 2°48.588 3.2 340 8.5 100980 76
2004-03-22 14:07 51°12.535 2°48.957 3.4 342 8.5 100980 76
2004-03-22 14:08 51°12.658 2°49.323 3.8 335 8.5 100970 75
2004-03-22 14:09 51°12.787 2°49.681 3.7 350 8.4 100970 75
2004-03-22 14:10 51°12.916 2°50.04 3 326 8.5 100970 75
2004-03-22 14:11 51°13.043 2°50.399 4 338 8.5 100970 75
2004-03-22 14:12 51°13.171 2°50.757 3.2 347 8.5 100970 75
2004-03-22 14:13 51°13.3 2°51.116 3.6 322 8.5 100970 75
2004-03-22 14:14 51°13.425 2°51.479 3.8 338 8.5 100970 74
2004-03-22 14:15 51°13.547 2°51.846 2.9 321 8.5 100980 74
2004-03-22 14:16 51°13.645 2°52.082 2.5 259 8.4 100980 74
2004-03-22 14:17 51°13.71 2°52.203 3.4 225 8.3 100960 74
2004-03-22 14:18 51°13.746 2°52.304 3 206 8.2 100980 74
2004-03-22 14:19 51°13.774 2°52.395 3.6 212 8.1 100980 74
2004-03-22 14:20 51°13.8 2°52.475 4.2 209 8 100980 75
2004-03-22 14:21 51°13.851 2°52.621 1.6 258 8 100970 76
2004-03-22 14:22 51°13.958 2°52.933 2.7 323 8 100970 76
2004-03-22 14:23 51°14.081 2°53.291 2.4 343 8 100980 76
2004-03-22 14:24 51°14.198 2°53.654 2.4 322 8.1 100980 76
2004-03-22 14:25 51°14.316 2°54.015 2.4 342 8 100980 76
2004-03-22 14:26 51°14.372 2°54.38 2.1 35 8 100980 76
2004-03-22 14:27 51°14.399 2°54.74 1.8 53 8 100980 76
2004-03-22 14:28 51°14.358 2°55.05 5.5 89 7.9 100970 76
2004-03-22 14:29 51°14.266 2°55.257 6 90 7.8 100990 77
2004-03-22 14:30 51°14.166 2°55.383 5.5 54 7.8 100980 78
2004-03-22 14:31 51°14.054 2°55.468 4.9 44 7.8 100980 78